STARLINK-35333, 66182

Orbit data source: Space-Track

STARLINK-35333, 66182 is a payload satellite owned by SpaceX/Seattle (US) in LEO that was launched on Sun, 26 Oct 2025 UTC via an FALCON 9 launch vehicle from the Air Force Eastern Test Range (AFETR). Payload-class satellites include a variety of spacecraft equipped with specific instruments for various scientific and technological missions. These include communications satellites like Starlink; space stations such as the ISS; scientific satellites like the Hubble; Earth observation satellites from companies like Planet Labs, Umbra, and HawkEye 360; GPS; miniature CubeSats for education and research; and military/defense satellites.

Loading next visibility...
Identifier
66182, 2025-243F
Orbit
LEO
Country
Flag of USUS
Related business
Manufacturer
SpaceX/Seattle
Mission
Operational Commercial Communications
Bus & Motor
STARLINK V2MO, Unknown motor
Mass
575 kg wet, ~530 kg dry
Launch date (UTC)
2025-10-26 (4 months ago)
Launch vehicle
FALCON 9
Launch site
Air Force Eastern Test Range (AFETR)
Object type
Payload
Rocket body
Debris
Shape & HBR
Box + 2 Pan, 17.7 m
Radar Cross Section
36.964 m²

Expand to show TLE details & history
Last TLE update: 9 hours ago

TLE from 9 hours ago
0 STARLINK-35333
1 66182U 25243F   26061.78583898  .00039233  00000-0  13290-2 0  9997
2 66182  53.1582 277.5429 0000971 109.9444 250.1661 15.30219080 19597
Epoch: 2026-03-02T18:51Z
TLE epoch observation values (Epoch: 2026-03-02T18:51:36.487Z)
Latitude
-0.00007°
Longitude
-165.93345°
Altitude
476.283 km
Speed
7.629 km/s
True Right ascension
18h 30m 10s
True Declination
0° 00' 00"
Sunlit
Object was in daylight at epoch
Visualization orbit readout
Latitude
Unknown
Longitude
Unknown
Altitude
Unknown
Speed
Unknown
Apparent Right ascension
Unknown
Apparent Declination
Unknown
Sunlit
N/A
Visualization observer readout
Local Sidereal Time
07:11:06
Azimuth
Unknown
Elevation
Unknown
Doppler factor
Unknown
Orbital elements
Apogee altitude
476.08 km
Perigee altitude
474.749 km
Semi-major axis
6,853.552 km
Eccentricity
0.0001
Inclination
53.1582°
RAAN
277.5429°
Arg. of periapsis
109.9444°
True anomaly
250.15563°
Mean anomaly
250.1661°
Eccentric anomaly
250.16087°
Mean motion
3.82534 °/min
Orbital period
94.11 mins
BSTAR
0.001329
Loading maneuver chart data...
Computing Atmospheric mass density...
Loading historical data...
Loading historical data...
Loading historical data...
Loading historical data...
Loading historical data...
Loading historical data...
Loading historical data...

Documentation

Showing up to 5 results
|